Weather History for KLEB - October, 2013

Change the Weather History Date:

Tuesday, October 1, 2013

  Actual Average (KVSF) Record (KVSF)
Temperature  
Mean Temperature 60 °F 52 °F  
Max Temperature 79 °F 64 °F - ()
Min Temperature 42 °F 41 °F - ()
Degree Days  
Heating Degree Days 4 13  
Month to date heating degree days 13  
Since 1 July heating degree days 265  
Cooling Degree Days 0 0  
Month to date cooling degree days 0  
Year to date cooling degree days 344  
Growing Degree Days 10 (Base 50)    
Moisture  
Dew Point 47 °F    
Average Humidity 85    
Maximum Humidity 96    
Minimum Humidity 39    
Precipitation  
Precipitation 0.00 in 0.17 in - ()
Month to date precipitation 0.17  
Year to date precipitation 32.30  
Sea Level Pressure  
Sea Level Pressure 29.96 in    
Wind  
Wind Speed 0 mph (NNW)    
Max Wind Speed 8 mph    
Max Gust Speed -    
Visibility 3 miles    
Events Fog    
T = Trace of Precipitation, MM = Missing Value Source: NWS Daily Summary

Daily Weather History Graph

Daily Weather History Graph

Search for Another Location

Airport or City:

Trip Planner

Search our weather history database for the weather conditions in past years. The results will help you decide how hot, cold, wet, or windy it might be!

Date:

Astronomy

Oct. 01, 2013 Rise Set
Actual Time 6:46 AM EDT 6:29 PM EDT
Civil Twilight 6:18 AM EDT 6:58 PM EDT
Nautical Twilight 5:45 AM EDT 7:31 PM EDT
Astronomical Twilight 5:11 AM EDT 8:05 PM EDT
Moon 3:12 AM EDT (10/1) 4:36 PM EDT (10/1)
Length of Visible Light 12h 39m
Length of Day
11h 42m
Waning Crescent, 12% of the Moon is Illuminated
Oct 1
Waning Crescent
Oct 4
New
Oct 11
First Quarter
Oct 18
Full
Oct 26
Last Quarter

Hourly Weather History & Observations

Time (EDT) Temp. Dew Point Humidity Pressure Visibility Wind Dir Wind Speed Gust Speed Precip Events Conditions
12:53 AM 45.0 °F 41.0 °F 86% 29.99 in 9.0 mi Calm Calm - N/A   Clear
1:00 AM 44.6 °F 41.0 °F 87% 29.99 in 2.5 mi Calm Calm - N/A   Scattered Clouds
1:08 AM 44.6 °F 42.8 °F 93% 29.99 in 3.0 mi Calm Calm - N/A   Scattered Clouds
1:18 AM 44.6 °F 41.0 °F 87% 30.00 in 2.0 mi Calm Calm - N/A   Mostly Cloudy
1:20 AM 44.6 °F 41.0 °F 87% 30.00 in 1.0 mi Calm Calm - N/A   Mist
1:28 AM 42.8 °F 41.0 °F 93% 30.00 in 0.5 mi Calm Calm - N/A Fog Fog
1:40 AM 44.6 °F 42.8 °F 93% 30.00 in 2.5 mi Calm Calm - N/A   Overcast
1:53 AM 46.0 °F 44.1 °F 93% 29.99 in 1.0 mi Calm Calm - N/A   Overcast
1:56 AM 46.4 °F 44.6 °F 93% 30.00 in 0.8 mi Calm Calm - N/A   Mist
2:03 AM 46.4 °F 44.6 °F 93% 30.00 in 1.2 mi Calm Calm - N/A   Overcast
2:15 AM 48.2 °F 44.6 °F 87% 29.99 in 0.8 mi Calm Calm - N/A   Mist
2:53 AM 46.9 °F 45.0 °F 93% 29.98 in 0.5 mi Calm Calm - N/A Fog Fog
3:13 AM 48.2 °F 46.4 °F 93% 29.99 in 0.2 mi Calm Calm - N/A Fog Fog
3:25 AM 48.2 °F 46.4 °F 93% 29.98 in 0.2 mi Calm Calm - N/A Fog Fog
3:39 AM 48.2 °F 46.4 °F 93% 29.98 in 0.2 mi Calm Calm - N/A Fog Fog
3:53 AM 48.0 °F 46.0 °F 93% 29.96 in 0.2 mi Calm Calm - N/A Fog Fog
4:43 AM 48.2 °F 46.4 °F 93% 29.99 in 0.2 mi Calm Calm - N/A Fog Fog
4:53 AM 48.9 °F 46.9 °F 93% 29.98 in 0.2 mi North 3.5 mph - N/A Fog Fog
5:25 AM 48.2 °F 46.4 °F 93% 29.99 in 0.2 mi NNW 3.5 mph - N/A Fog Fog
5:40 AM 48.2 °F 46.4 °F 93% 30.00 in 0.2 mi Calm Calm - N/A Fog Fog
5:53 AM 48.0 °F 46.0 °F 93% 29.99 in 0.2 mi NW 3.5 mph - N/A Fog Fog
6:40 AM 48.2 °F 46.4 °F 93% 30.00 in 0.2 mi Calm Calm - N/A Fog Fog
6:53 AM 48.0 °F 46.0 °F 93% 30.01 in 0.2 mi Calm Calm - N/A Fog Fog
7:51 AM 48.2 °F 46.4 °F 93% 30.02 in 0.2 mi Calm Calm - N/A Fog Fog
7:53 AM 48.0 °F 46.0 °F 93% 30.02 in 0.2 mi Calm Calm - N/A Fog Fog
8:18 AM 48.2 °F 46.4 °F 93% 30.02 in 0.2 mi Calm Calm - N/A Fog Fog
8:25 AM 48.2 °F 46.4 °F 93% 30.02 in 0.2 mi Calm Calm - N/A Fog Fog
8:53 AM 48.0 °F 46.0 °F 93% 30.02 in 0.2 mi Calm Calm - N/A Fog Fog
9:49 AM 48.2 °F 46.4 °F 93% 30.01 in 0.5 mi Calm Calm - N/A Fog Fog
9:53 AM 48.0 °F 46.9 °F 96% 30.01 in 0.5 mi Calm Calm - N/A Fog Fog
10:07 AM 50.0 °F 46.4 °F 87% 30.01 in 0.8 mi Calm Calm - N/A   Overcast
10:16 AM 50.0 °F 48.2 °F 94% 30.00 in 1.0 mi Calm Calm - N/A   Overcast
10:53 AM 52.0 °F 48.0 °F 86% 29.99 in 1.0 mi Calm Calm - N/A   Overcast
11:00 AM 51.8 °F 48.2 °F 88% 29.99 in 8.0 mi Calm Calm - N/A   Mostly Cloudy
11:07 AM 53.6 °F 48.2 °F 82% 29.99 in 8.0 mi Calm Calm - N/A   Scattered Clouds
11:53 AM 61.0 °F 50.0 °F 67% 29.96 in 10.0 mi Calm Calm - N/A   Clear
12:53 PM 68.0 °F 48.9 °F 50% 29.93 in 10.0 mi Calm Calm - N/A   Clear
1:53 PM 73.9 °F 50.0 °F 43% 29.89 in 10.0 mi NNW 4.6 mph - N/A   Clear
2:53 PM 77.0 °F 51.1 °F 40% 29.87 in 10.0 mi Calm Calm - N/A   Clear
3:53 PM 79.0 °F 52.0 °F 39% 29.86 in 10.0 mi North 4.6 mph - N/A   Mostly Cloudy
4:53 PM 78.1 °F 53.1 °F 42% 29.85 in 10.0 mi NNW 8.1 mph - N/A   Scattered Clouds
5:53 PM 66.9 °F 57.0 °F 70% 29.86 in 10.0 mi Calm Calm - N/A   Clear
6:53 PM 61.0 °F 55.9 °F 83% 29.88 in 10.0 mi Calm Calm - N/A   Scattered Clouds
7:53 PM 57.9 °F 54.0 °F 87% 29.89 in 9.0 mi Calm Calm - N/A   Scattered Clouds
8:53 PM 57.9 °F 54.0 °F 87% 29.90 in 8.0 mi Calm Calm - N/A   Mostly Cloudy
9:53 PM 55.0 °F 53.1 °F 93% 29.90 in 5.0 mi Calm Calm - N/A   Clear
10:43 PM 53.6 °F 50.0 °F 88% 29.90 in 2.5 mi Calm Calm - N/A   Clear
10:51 PM 53.6 °F 50.0 °F 88% 29.90 in 5.0 mi Calm Calm - N/A   Clear
10:53 PM 52.0 °F 48.9 °F 89% 29.90 in 5.0 mi Calm Calm - N/A   Clear
11:11 PM 51.8 °F 48.2 °F 88% 29.90 in 2.5 mi Calm Calm - N/A   Clear
11:19 PM 51.8 °F 48.2 °F 88% 29.90 in 3.0 mi Calm Calm - N/A   Clear
11:37 PM 51.8 °F 48.2 °F 88% 29.89 in 1.8 mi Calm Calm - N/A   Clear
11:53 PM 51.1 °F 48.0 °F 89% 29.89 in 0.8 mi Calm Calm - N/A   Clear
11:59 PM 51.8 °F 48.2 °F 88% 29.90 in 2.0 mi Calm Calm - N/A   Clear